Location: Plainartige
(45.6866°N, 1.7993°E)
Time: 04:32:44
(UTC+00:00)

Vanguard 1 - Pass Details

Date: 01 June 2022
Orbit: 649 x 3833 km, 34.2° (Epoch: 06 July)

Event Time Altitude Azimuth Distance (km) Brightness Sun altitude
Exits shadow 22:18:50 26° 157° (SSE) 3,095 11.9 -19.0°
Maximum altitude 22:21:04 28° 140° (SE) 3,242 12.1 -19.2°
Drops below altitude 10° 22:32:58 10° 91° (E) 5,672 13.7 -19.9°
Sets 22:39:17 0° 82° (E) 7,200 14.4 -20.2°
